STARLINK-34803, 65059

Orbit data source: Space-Track

STARLINK-34803, 65059 is a payload satellite owned by SpaceX/Seattle (US) in SSO that was launched on Thu, 31 Jul 2025 UTC via an FALCON 9 launch vehicle from the Air Force Western Test Range (AFWTR). Payload-class satellites include a variety of spacecraft equipped with specific instruments for various scientific and technological missions. These include communications satellites like Starlink; space stations such as the ISS; scientific satellites like the Hubble; Earth observation satellites from companies like Planet Labs, Umbra, and HawkEye 360; GPS; miniature CubeSats for education and research; and military/defense satellites.

Loading next visibility...
Identifier
65059, 2025-165D
Orbit
SSO
Country
Flag of USUS
Related business
Manufacturer
SpaceX/Seattle
Mission
Operational Commercial Communications
Bus & Motor
STARLINK V2MO, Unknown motor
Mass
575 kg wet, ~530 kg dry
Launch date (UTC)
2025-07-31 (4 months ago)
Launch vehicle
FALCON 9
Launch site
Air Force Western Test Range (AFWTR)
Object type
Payload
Rocket body
Debris
Shape & HBR
Box + 2 Pan, 17.7 m
Radar Cross Section
36.964 m², Large (>1 m²)

Expand to show TLE details & history
Last TLE update: 13 hours ago

TLE from 13 hours ago
0 STARLINK-34803
1 65059U 25165D   25342.45658802  .00005659  00000-0  39608-3 0  9992
2 65059  97.6032  57.3142 0001470  95.0992 265.0402 15.05653541 21065
Epoch: 2025-12-08T10:57Z
TLE epoch observation values (Epoch: 2025-12-08T10:57:29.204Z)
Latitude
-0.00011°
Longitude
175.48717°
Altitude
552.654 km
Speed
7.585 km/s
True Right ascension
03h 49m 15s
True Declination
0° 00' 00"
Sunlit
Object was in full shadow at epoch
Visualization orbit readout
Latitude
Unknown
Longitude
Unknown
Altitude
Unknown
Speed
Unknown
Apparent Right ascension
Unknown
Apparent Declination
Unknown
Sunlit
N/A
Visualization observer readout
Local Sidereal Time
21:57:36
Azimuth
Unknown
Elevation
Unknown
Doppler factor
Unknown
Orbital elements
Apogee altitude
547.512 km
Perigee altitude
545.476 km
Semi-major axis
6,924.631 km
Eccentricity
0.00015
Inclination
97.6032°
RAAN
57.3142°
Arg. of periapsis
95.0992°
True anomaly
265.02342°
Mean anomaly
265.0402°
Eccentric anomaly
265.03181°
Mean motion
3.76659 °/min
Orbital period
95.58 mins
BSTAR
0.00039608
Loading maneuver chart data...
Computing Atmospheric mass density...
Loading historical data...
Loading historical data...
Loading historical data...
Loading historical data...
Loading historical data...
Loading historical data...
Loading historical data...

Documentation

Showing up to 5 results
|